Regional Weather Roundup
Issued by NWS

Home | Current Version | Previous Version | Text Only | Print | Product List | Glossary On
Versions: 1 2 3 4 5 6 7 8 9 10 11 12 13 14 15 16 17 18 19 20 21 22 23 24 25 26 27
000
ASUS46 KSEW 181710
RWRWA

WASHINGTON REGIONAL WEATHER ROUNDUP
NATIONAL WEATHER SERVICE SEATTLE WA
1000 AM PDT FRI AUG 18 2017

NOTE:"FAIR" INDICATES FEW OR NO CLOUDS BELOW 12,000 FEET WITH NO
SIGNIFICANT WEATHER AND/OR OBSTRUCTIONS TO VISIBILITY.

WAZ507-509-555>559-181800-
SEATTLE, TACOMA, EVERETT, AND VICINITY

CITY           SKY/WX    TMP DP  RH WIND       PRES   REMARKS
EVERETT        CLOUDY    63  53  70 VRB5      30.18S
BOEING FIELD   PTSUNNY   64  57  78 VRB3      30.17S
RENTON         CLOUDY    64  57  78 SE5       30.18R
SEATAC AIRPORT PTSUNNY   62  54  74 W6        30.19R
JBLM-MCCHORD   CLOUDY    60  57  88 SW3       30.19S
PUYALLUP       CLOUDY    63  55  77 CALM      30.19S
BREMERTON      CLOUDY    61  54  77 VRB6      30.19S
JBLM-FT LEWIS  CLOUDY    60  56  86 S5        30.18S
TACOMA NARROWS CLOUDY    57  53  86 S6        30.19R
$$

WAZ001-503-506-510-514-515-181800-
NORTH INTERIOR

CITY           SKY/WX    TMP DP  RH WIND       PRES   REMARKS
BELLINGHAM     CLOUDY    62  56  80 S14G23    30.14S
FRIDAY HARBOR  MOSUNNY   61  57  87 S12G18    30.15R
EASTSOUND      MOSUNNY   61  55  82 S15       30.13S
PORT ANGELES   SUNNY     64  56  75 N7        30.16S
EDIZ HOOK      FAIR      60  54  81 NW12      30.16S
PORT TOWNSEND  FAIR      66  55  68 E7        30.17S
NAS WHIDBEY    PTSUNNY   68  51  54 S9        30.20S
ARLINGTON      PTSUNNY   65  54  67 CALM      30.17F
BURLINGTON     CLOUDY    64  55  72 CALM      30.16F
$$

WAZ020-022-039-040-504-511-512-181800-
SOUTHWEST INTERIOR

CITY           SKY/WX    TMP DP  RH WIND       PRES   REMARKS
SHELTON        CLOUDY    58  53  84 W3        30.17R
OLYMPIA        CLOUDY    57  53  86 VRB3      30.19S
CHEHALIS       CLOUDY    64  55  72 VRB5      30.20S
KELSO          MOSUNNY   64  54  69 W6        30.20S
VANCOUVER      MOSUNNY   66  55  67 VRB7      30.18S
SCAPPOOSE, OR  SUNNY     67  53  61 NE6       30.18S
PORTLAND, OR   PTSUNNY   64  54  69 N3        30.19S
$$

WAZ021-516-517-181800-
WASHINGTON COAST

CITY           SKY/WX    TMP DP  RH WIND       PRES   REMARKS
FORKS          CLOUDY    61  58  90 W3        30.18S
HOQUIAM        CLOUDY    62  59  90 SW12      30.19
ASTORIA, OR    CLOUDY    60  56  86 CALM      30.21S
$$

WAZ019-023-024-040-567>569-181800-
CASCADE MOUNTAINS AND COLUMBIA GORGE

CITY           SKY/WX    TMP DP  RH WIND       PRES   REMARKS
STAMPEDE PASS  MOSUNNY   55  52  89 VRB7      30.20S
TROUTDALE, OR  CLOUDY    61  54  77 SW6       30.19S
HOOD RIVER, OR SUNNY     72  52  49 CALM      30.09S
THE DALLES, OR SUNNY     76  53  44 VRB3      30.04F
$$

WAZ026-027-041>044-520-521-181800-
EAST SLOPES

CITY           SKY/WX    TMP DP  RH WIND       PRES   REMARKS
OMAK           MOSUNNY   76  41  28 NE3       30.00F
WENATCHEE      SUNNY     78  44  29 W13       30.00F
ELLENSBURG     SUNNY     77  48  35 NW24G32   30.04F
YAKIMA         SUNNY     79  49  34 SW3       30.03F
SUNNYSIDE ARPT   N/A     70  46  41 CALM      30.03S
YAKIMA TC      FAIR      77  40  25 SW6       30.02F
$$

WAZ028-034-035-181800-
COLUMBIA BASIN

CITY           SKY/WX    TMP DP  RH WIND       PRES   REMARKS
EPHRATA        SUNNY     73  44  35 VRB3      30.01S
MOSES LAKE     SUNNY     74  49  41 S5        30.02S
PASCO          SUNNY     79  51  37 SW7       30.02S
RICHLAND ARPT  SUNNY     80  50  34 S6        30.01F
HERMISTON, OR  SUNNY     78  40  25 W8        30.03F
$$

WAZ036>038-181800-
NORTHEAST WASHINGTON

CITY           SKY/WX    TMP DP  RH WIND       PRES   REMARKS
SPOKANE GEIGER MOSUNNY   72  45  37 S9        30.06S
SPOKANE FELTS  SUNNY     74  45  35 SW9       30.06S
FAIRCHILD AFB  SUNNY     71  44  37 S9        30.06S
COEURDALENE,ID SUNNY     73  46  38 S6        30.08S
DEER PARK      SUNNY     69  44  40 S5        30.06F
$$

WAZ029>033-181800-
SOUTHEAST WASHINGTON

CITY           SKY/WX    TMP DP  RH WIND       PRES   REMARKS
PULLMAN        SUNNY     75  41  29 SW6       30.11R
LEWISTON, ID   SUNNY     72  48  42 NW5       30.06S
WALLA WALLA    SUNNY     79  39  23 S12       30.05F
PENDLETON, OR  SUNNY     76  33  21 S5        30.06F
$$




USA.gov is the U.S. government's official web portal to all federal, state and local government web resources and services.